Date,TemperatureHighF,TemperatureAvgF,TemperatureLowF,DewpointHighF,DewpointAvgF,DewpointLowF,HumidityHigh,HumidityAvg,HumidityLow,PressureMaxIn,PressureMinIn,WindSpeedMaxMPH,WindSpeedAvgMPH,GustSpeedMaxMPH,PrecipitationSumIn
2013-3-1,69,49,30,29,23,15,75,42,16,30.30,30.10,4,1,13,0.00
2013-3-2,61,46,37,30,27,23,68,49,25,30.42,30.25,7,2,19,0.00
2013-3-3,75,57,37,41,30,22,65,39,19,30.25,29.86,8,4,25,0.00
2013-3-4,89,68,53,51,44,39,80,48,18,29.86,29.64,8,5,16,0.00
2013-3-5,65,54,38,53,25,10,70,37,13,30.36,29.69,16,6,26,0.00
2013-3-6,64,47,33,24,18,11,52,34,13,30.46,30.21,3,0,11,0.00
2013-3-7,71,56,39,52,41,19,81,59,37,30.23,30.05,7,3,17,0.00
2013-3-8,63,60,56,63,57,50,100,91,75,30.11,29.96,7,3,13,0.06
2013-3-9,70,64,60,67,62,57,100,93,80,29.97,29.60,8,5,16,0.13
2013-3-10,64,56,42,62,42,32,100,64,36,30.11,29.67,10,3,26,1.00
2013-3-11,65,47,35,34,29,21,86,55,21,30.18,29.98,6,1,15,0.00
2013-3-12,79,57,40,38,31,24,67,41,17,30.22,30.03,7,2,21,0.00
2013-3-13,76,58,40,39,36,31,76,47,23,30.42,30.21,6,2,8,0.00
2013-3-14,78,61,49,52,44,36,87,57,28,30.35,30.18,7,3,17,0.00
2013-3-15,81,65,53,53,47,37,92,58,26,30.20,29.95,9,5,18,0.00
2013-3-16,84,68,57,60,54,48,90,64,29,29.95,29.68,10,5,18,0.00
2013-3-17,84,70,64,62,58,55,83,68,40,29.76,29.58,8,3,20,0.00
2013-3-18,88,72,61,64,52,38,100,58,19,29.89,29.65,7,3,18,0.00
2013-3-19,85,65,45,62,51,41,91,63,37,29.96,29.79,6,2,13,0.45
2013-3-20,72,58,50,55,45,34,100,67,27,30.22,29.95,11,2,19,0.05
2013-3-21,74,62,49,59,51,38,84,67,52,30.00,29.56,9,4,20,0.00
2013-3-22,87,71,57,64,60,47,95,71,39,29.72,29.56,8,4,12,0.02
2013-3-23,81,61,49,59,51,45,95,73,39,29.77,29.54,5,2,11,0.00
2013-3-24,60,50,40,57,31,20,94,51,24,30.15,29.66,13,5,21,0.00
2013-3-25,60,45,34,26,20,13,64,41,17,30.38,30.15,7,1,16,0.00
2013-3-26,67,47,28,25,21,16,74,40,15,30.49,30.27,4,1,7,0.00
2013-3-27,68,54,38,46,36,21,71,52,36,30.30,30.12,8,3,20,0.00
2013-3-28,73,62,53,57,53,46,85,74,56,30.17,30.07,8,3,16,0.00
2013-3-29,76,67,59,58,56,54,90,69,47,30.13,30.00,8,4,12,0.00
2013-3-30,82,70,62,61,59,56,92,70,44,30.05,29.83,8,3,18,0.00
2013-3-31,80,68,58,65,61,55,92,78,51,29.92,29.81,7,2,13,0.12